User: anonymous   Login
Location: Unspecified
(0.0000°N, 0.0000°E)
Time: 11:53:46
(UTC+00:00)
Language:

NOSS 2-1 (E) - Orbit

View from above orbital plane
View from above orbital plane
View from above satellite
View from above satellite

Ground track
Ground track

The orbit data is extracted from the following two-line orbital elements,

1 20642U 90050E   17287.80638400 0.00000300  00000-0  73340-4 0    09
2 20642  63.3395 244.5378 0798500  30.1184 329.8816 13.41706858    04
Epoch (UTC): 14 October 2017 19:21:11
Eccentricity: 0.0798500
inclination: 63.3395°
perigee height: 505 km
apogee height: 1700 km
right ascension of ascending node: 244.5378°
argument of perigee: 30.1184°
revolutions per day: 13.41706858
mean anomaly at epoch: 329.8816°
orbit number at epoch: 0

The dashed part of the orbit path shows where the satellite is in the earth's shadow,  

DLR